Regional Weather Roundup
Issued by NWS

Home | Current Version | Previous Version | Text Only | Print | Product List | Glossary Off
Versions: 1 2 3 4 5 6 7 8 9 10 11 12 13 14 15 16 17 18 19 20 21 22 23 24 25 26 27 28 29 30 31 32 33 34 35 36 37 38 39 40 41 42 43 44 45 46 47 48 49 50

000
ASUS43 KLOT 230021
RWRIL

ILLINOIS REGIONAL WEATHER ROUNDUP
NATIONAL WEATHER SERVICE CHICAGO/ROMEOVILLE IL
700 PM CDT FRI MAY 22 2015

NOTE: "FAIR" INDICATES FEW OR NO CLOUDS BELOW 12,000 FEET WITH NO
SIGNIFICANT WEATHER AND/OR OBSTRUCTIONS TO VISIBILITY.

* THESE STATIONS ARE NOT UNDER NWS QUALITY CONTROL. THEY ALSO MAY NOT
  REPORT WEATHER SUCH AS PRECIPITATION OR FOG.

ILZ001-002-007-009-015-016-024-230100-
NORTHWEST ILLINOIS

CITY           SKY/WX    TMP DP  RH WIND       PRES   REMARKS
MOLINE         PTSUNNY   71  40  32 W6        30.18S
6HR MIN TEMP:  71; 6HR MAX TEMP:  78;

STERLING*      PTSUNNY   72  41  33 N3        30.19S
SAVANNA*       CLOUDY    71  40  32 NE5       30.19S
$$

ILZ003-004-008-010-011-017-018-230100-
NORTH CENTRAL ILLINOIS

CITY           SKY/WX    TMP DP  RH WIND       PRES   REMARKS
ROCKFORD       CLOUDY    70  40  33 CALM      30.23S
6HR MIN TEMP:  70; 6HR MAX TEMP:  75;

FREEPORT*      CLOUDY    69  40  35 CALM      30.22S
ROCHELLE*      CLOUDY    71  38  30 CALM      30.21S
DE KALB*       CLOUDY    62  34  35 E13       30.24R
PERU*          MOSUNNY   75  38  26 CALM      30.19F
$$

ILZ005-006-012>014-019>023-230100-
NORTHEAST ILLINOIS

CITY           SKY/WX    TMP DP  RH WIND       PRES   REMARKS
CHICAGO-OHARE  CLOUDY    57  25  29 E10       30.25F
6HR MIN TEMP:  57; 6HR MAX TEMP:  66;

CHICAGO-MIDWAY CLOUDY    57  28  33 E12       30.26S
6HR MIN TEMP:  57; 6HR MAX TEMP:  68;

AURORA         CLOUDY    65  34  31 E10       30.23R
6HR MIN TEMP:  65; 6HR MAX TEMP:  74;

LANSING*       PTSUNNY   56  30  37 NE8       30.26S
JOLIET*        CLOUDY    63  37  37 E8        30.24R
WAUKEGAN       PTSUNNY   51  29  42 E7        30.26S
6HR MIN TEMP:  51; 6HR MAX TEMP:  58;

DUPAGE AIRPORT CLOUDY    62  30  29 E10       30.23F
6HR MIN TEMP:  62; 6HR MAX TEMP:  72;

KANKAKEE*      CLOUDY    65  39  37 NE10      30.23S
WHEELING       PTSUNNY   56  24  29 E7        30.27F
6HR MIN TEMP:  56; 6HR MAX TEMP:  61;

MORRIS*        CLOUDY    67  35  30 E14       30.21R
ROMEOVILLE*    CLOUDY    60  32  34 E13       30.24S
NORTHERLY ISL    N/A     50  35  56 NE8         N/A
$$

LMZ740>746-230100-
SOUTHERN LAKE MICHIGAN

STATION/POSITION SKY/WX   TEMP    WIND        PRES    VSBY  WAVE
                          AIR SEA DIR/SP/G                  HT/PER
                          (F)     (DEG/KT/KT) (MB)    (MI)  (FT/S)
SOUTHERN BUOY              42 38   70/  6/  6 1025.9R         0
HARRISON CRIB              48      90/  9/ 10   N/A
BURNHAM HARBOR             49      70/  5/  7   N/A
CALUMET HARBOR             50      50/ 10/ 12   N/A
BURNS HARBOR               53      50/  7/  9 1026.1R
MICHIGAN CITY              52      30/ 11/ 12   N/A
MICHIGAN CITY 6N           51 51   90/ 10/ 12   N/A           2/ 3
ST. JOSEPH                 53 53   60/ 10/ 10   N/A           2/ 3
$$

ILZ025>027-034>036-040-047-049-050-058-095>099-230100-
WEST-CENTRAL ILLINOIS

CITY           SKY/WX    TMP DP  RH WIND       PRES   REMARKS
QUINCY         CLOUDY    69  53  56 SW9       30.22R
GALESBURG*     CLOUDY    72  42  33 W3        30.19S
MACOMB*        CLOUDY    73  39  29 SW5       30.22S
JACKSONVILLE*  CLOUDY    74  46  37 SW6       30.21S
PITTSFIELD*    CLOUDY    71  52  50 W7        30.23S
$$

ILZ028>032-037-038-041>044-048-051>054-059>061-230100-
CENTRAL ILLINOIS

CITY           SKY/WX    TMP DP  RH WIND       PRES   REMARKS
PONTIAC        MOSUNNY   76  37  25 NE3       30.20S
BLOOMINGTON    MOSUNNY   75  42  30 SW5       30.21F
DECATUR        CLOUDY    73  44  35 SW5       30.20F
PEORIA         CLOUDY    74  46  36 SW3       30.20R
6HR MIN TEMP:  74; 6HR MAX TEMP:  80;

LACON*         MOSUNNY   73  44  35 S3        30.18S
LINCOLN*       CLOUDY    76  38  24 CALM      30.18R
SPRINGFIELD    CLOUDY    76  43  30 CALM      30.21R
6HR MIN TEMP:  76; 6HR MAX TEMP:  81;

TAYLORVILLE    CLOUDY    72  46  40 SW7       30.22R
$$

ILZ033-039-045-046-055>057-062-063-230100-
EAST-CENTRAL ILLINOIS

CITY           SKY/WX    TMP DP  RH WIND       PRES   REMARKS
CHAMPAIGN      SUNNY     76  39  26 CALM      30.20F
DANVILLE*      MOSUNNY   73  41  31 CALM      30.18S
RANTOUL*       SUNNY     77  39  25 CALM      30.19F
MATTOON        PTSUNNY   71  45  39 SW6       30.19F
PARIS*         MOSUNNY   74  43  31 E6        30.20F
$$

ILZ079-100>102-230100-
SOUTHWEST ILLINOIS

CITY           SKY/WX    TMP DP  RH WIND       PRES   REMARKS
BELLEVILLE     CLOUDY    72  54  53 NW5       30.21S
CAHOKIA*       PTSUNNY   74  51  44 CALM      30.22S
SPARTA*        CLOUDY    70  55  58 S6        30.24S
$$

ILZ064>066-069>071-074>076-080>082-084>086-088>090-092>094-230100-
SOUTH-CENTRAL ILLINOIS

CITY           SKY/WX    TMP DP  RH WIND       PRES   REMARKS
CARBONDALE     CLOUDY    68  52  56 SW6       30.25S
6HR MIN TEMP:  68; 6HR MAX TEMP:  73;

CAIRO*         CLOUDY    70  49  47 CALM      30.25S
EFFINGHAM*     CLOUDY    71  47  41 S3        30.24R
MARION         CLOUDY    68  55  64 SW3       30.25F
MT. VERNON     CLOUDY    70  52  52 SW5       30.25S
CENTRALIA*     CLOUDY    71  50  46 SW3       30.24R
SALEM*         CLOUDY    73  49  42 CALM      30.24S
METROPOLIS*    CLOUDY    70  53  53 CALM      30.24F
$$

ILZ067-068-072-073-078-083-087-091-230100-
SOUTHEAST ILLINOIS

CITY           SKY/WX    TMP DP  RH WIND       PRES   REMARKS
LAWRENCEVILLE  CLOUDY    72  47  40 W5        30.22F
FLORA*         CLOUDY    71  49  46 SW5       30.24R
FAIRFIELD*     CLOUDY    72  53  51 SW6       30.23R
HARRISBURG*    CLOUDY    70  54  56 SW5       30.25F
ROBINSON*      CLOUDY    73  45  37 SW5       30.22F
CARMI*         CLOUDY    72  44  36 SW6       30.23F
$$

ABBREVIATIONS USED IN REMARKS
   TC - TEMPERATURE IN CELSIUS
  WCI - WIND CHILL INDEX
   HX - HEAT INDEX
  VSB - VISIBILITY
$$



USA.gov is the U.S. government's official web portal to all federal, state and local government web resources and services.